Location: Newark
(39.6867°N, 100.6772°W)
Time: 03:32:00
(UTC+00:00)

deb Explorer IX - All Passes

Search period start: 23 October 2019 00:00
Search period end: 02 November 2019 00:00
Orbit: 545 x 1106 km, 38.8° (Epoch: 22 October)

Date Brightness Start Highest point End Pass type
(mag) Time Alt. Az. Time Alt. Az. Time Alt. Az.
23 Oct - 00:31:15 10° W 00:36:48 30° SSW 00:42:49 10° SSE visible
23 Oct - 17:04:27 10° S 17:07:28 17° SE 17:10:45 10° ESE daylight
23 Oct - 18:48:58 10° WSW 18:53:41 55° SSE 18:59:13 10° E daylight
23 Oct - 20:35:21 10° W 20:40:39 83° S 20:46:58 10° E daylight
23 Oct - 22:22:05 10° W 22:27:52 63° SSW 22:34:34 10° ESE daylight
24 Oct - 00:09:26 10° W 00:14:48 29° SSW 00:20:39 10° SSE visible
24 Oct - 16:42:42 10° S 16:45:37 17° SE 16:48:46 10° ESE daylight
24 Oct - 18:27:14 10° WSW 18:31:49 55° SSE 18:37:11 10° E daylight
24 Oct - 20:13:36 10° W 20:18:45 83° S 20:24:53 10° E daylight
24 Oct - 22:00:18 10° W 22:05:54 61° SSW 22:12:26 10° ESE daylight
24 Oct - 23:47:39 10° W 23:52:49 27° SSW 23:58:30 10° SSE daylight
25 Oct - 16:20:56 10° S 16:23:46 17° SE 16:26:49 10° ESE daylight
25 Oct - 18:05:31 10° WSW 18:09:58 55° SSE 18:15:09 10° E daylight
25 Oct - 19:51:52 10° W 19:56:52 83° S 20:02:48 10° E daylight
25 Oct - 21:38:32 10° W 21:43:58 60° SSW 21:50:20 10° ESE daylight
25 Oct - 23:25:52 10° W 23:30:49 26° SSW 23:36:18 10° SSE daylight
26 Oct - 15:59:09 10° S 16:01:56 17° SE 16:04:53 10° ESE daylight
26 Oct - 17:43:47 10° WSW 17:48:07 55° SSE 17:53:09 10° E daylight
26 Oct - 19:30:08 10° W 19:34:59 83° S 19:40:45 10° E daylight
26 Oct - 21:16:47 10° W 21:22:02 58° SSW 21:28:13 10° ESE daylight
26 Oct - 23:04:07 10° W 23:08:51 25° SSW 23:14:07 10° SSE daylight
27 Oct - 15:37:22 10° S 15:40:06 17° SE 15:42:59 10° ESE daylight
27 Oct - 17:22:03 10° WSW 17:26:18 55° SSE 17:31:09 10° E daylight
27 Oct - 19:08:25 10° W 19:13:08 82° S 19:18:42 10° E daylight
27 Oct - 20:55:02 10° W 21:00:07 57° SSW 21:06:07 10° ESE daylight
27 Oct - 22:42:23 10° W 22:46:54 24° SSW 22:51:55 10° SSE daylight
28 Oct - 15:15:34 10° S 15:18:16 17° SE 15:21:06 10° ESE daylight
28 Oct - 17:00:19 10° WSW 17:04:29 55° SSE 17:09:11 10° E daylight
28 Oct - 18:46:41 10° W 18:51:17 82° S 18:56:40 10° E daylight
28 Oct - 20:33:18 10° W 20:38:13 55° SSW 20:44:01 10° ESE daylight
28 Oct - 22:20:40 10° W 22:24:57 22° SSW 22:29:43 10° SSE daylight
29 Oct - 14:53:45 10° S 14:56:27 17° SSE 14:59:15 10° ESE daylight
29 Oct - 16:38:34 10° WSW 16:42:40 55° SSE 16:47:14 10° E daylight
29 Oct - 18:24:58 10° W 18:29:27 82° S 18:34:39 10° E daylight
29 Oct - 20:11:35 10° W 20:16:20 53° SSW 20:21:56 10° ESE daylight
29 Oct - 21:58:59 10° W 22:03:02 21° SSW 22:07:31 10° SSE daylight
30 Oct - 14:31:54 10° S 14:34:38 17° SSE 14:37:25 10° ESE daylight
30 Oct - 16:16:49 10° WSW 16:20:52 56° SSE 16:25:18 10° E daylight
30 Oct - 18:03:15 10° W 18:07:37 81° S 18:12:39 10° E daylight
30 Oct - 19:49:51 10° W 19:54:28 52° SSW 19:59:51 10° ESE daylight
30 Oct - 21:37:19 10° WSW 21:41:07 20° SSW 21:45:18 10° SSE daylight
31 Oct - 14:10:03 10° SSW 14:12:49 18° SSE 14:15:37 10° ESE daylight
31 Oct - 15:55:03 10° WSW 15:59:04 56° SSE 16:03:24 10° E daylight
31 Oct - 17:41:31 10° W 17:45:48 81° S 17:50:40 10° E daylight
31 Oct - 19:28:08 10° W 19:32:36 50° SSW 19:37:48 10° SE daylight
31 Oct - 21:15:40 10° WSW 21:19:12 19° SSW 21:23:05 10° S daylight
01 Nov - 13:48:09 10° SSW 13:51:00 18° SSE 13:53:50 10° ESE daylight
01 Nov - 15:33:17 10° WSW 15:37:17 57° SSE 15:41:31 10° E daylight
01 Nov - 17:19:47 10° W 17:24:00 80° S 17:28:43 10° E daylight
01 Nov - 19:06:25 10° W 19:10:46 48° SSW 19:15:45 10° SE daylight
01 Nov - 20:54:03 10° WSW 20:57:18 17° SSW 21:00:52 10° S daylight
